www.pogodaiklimat.ru

Погода и климат >> Архив погоды >> Индонезия >> Surabaya Gedangan


ПОГОДА в Surabaya Gedangan

  • Прогноз погоды в Surabaya Gedangan
  • Монитор погоды в Surabaya Gedangan
  • Климат города

АРХИВ ПОГОДЫ в Surabaya Gedangan

Время (UTC), дата Ветер
(напр.,м/с)
 
Видим.   Явления Облачность Т
(С)
Тd
(С)
f
(%)
Тe
(С)
Тes
(С)
Комфортность P
(гПа)
Po
(гПа)
Тmin
(С)
Tmax
(С)
R
(мм)
R24
(мм)
S
(см)
06 22.04 штиль 0 10 км 8/4 600 м
[Cu hum As op Ci fib]
+30.0 +23.3 67 +40 +49 очень
душно
1009.3 1009.0
09 22.04 штиль 0 10 км 8/4 600 м
[Cu hum As op Ci fib]
+28.9 +24.6 78 +41 +42 опасность
перегрева
1008.4 1008.0
12 22.04 штиль 0 10 км ясно +29.4 +25.9 81 +44 +44 опасность
перегрева
1010.4 1010.0 +34.7
15 22.04 штиль 0 10 км 3/0
[Ci fib]
+28.4 +25.5 84 +42 +42 опасность
перегрева
1012.0 1011.6
18 22.04 штиль 0 9000 м 3/0
[Ci fib]
+27.8 +25.5 87 +41 +41 опасность
перегрева
1010.9 1010.5
21 22.04 штиль 0 9000 м 3/1 600 м
[Cu hum Ci fib]
+27.1 +25.0 88 +39 +39 очень
душно
1009.9 1009.5
00 23.04 штиль 0 9000 м 5/3 600 м
[Cu hum Ac trans Ci fib]
+27.2 +25.1 88 +39 +41 очень
душно
1011.5 1011.1 +26.5
03 23.04 штиль 0 11 км 5/0
[Cu med, cong Ci fib]
+31.8 +25.1 68 +46 +66 опасность
перегрева
1011.5 1011.2
06 23.04 С 1 12 км 4/0
[Cu med, cong Ci fib]
+33.7 +23.6 56 +45 +64 опасность
перегрева
1009.0 1008.6
09 23.04 штиль 0 10 км 8/4 600 м
[Cu hum As op Ci fib]
+30.4 +24.9 72 +43 +45 опасность
перегрева
1009.0 1008.7
12 23.04 штиль 0 10 км {дождь} 4/3 600 м
[Cu hum Ci fib]
+27.1 +23.7 82 +37 +37 очень
душно
1011.8 1011.5 +34.7
15 23.04 штиль 0 10 км 3/0
[Ci fib]
+26.4 +23.8 86 +36 +36 очень
душно
1013.0 1012.7
18 23.04 штиль 0 10 км 4/3 600 м
[Cu hum Ci fib]
+26.0 +23.6 87 +35 +35 очень
душно
1011.2 1010.9
21 23.04 штиль 0 10 км 3/0
[Ci fib]
+26.0 +23.8 88 +36 +36 очень
душно
1010.4 1010.0
00 24.04 штиль 0 7000 м 5/0 2000 м
[Cu med, cong Ac trans Ci fib]
+27.3 +24.3 84 +38 +41 очень
душно
1011.7 1011.4 +25.9
03 24.04 штиль 0 10 км 5/4 2000 м
[Cu hum Ac trans Ci fib]
+31.9 +25.1 67 +45 +58 опасность
перегрева
1012.0 1011.6
06 24.04 ЮВ 4 12 км 5/0 2000 м
[Cb calv Ci fib]
+34.1 +25.4 61 +49 +58 опасность
перегрева
1009.1 1008.7
09 24.04 С 2 11 км 8/0
[Cb cap Ci fib]
+32.8 +25.8 67 +48 +50 опасность
перегрева
1008.4 1008.0
12 24.04 СВ 3 8000 м 5/0
[Cu med, cong Ci fib]
+29.8 +25.9 80 +45 +45 опасность
перегрева
1010.2 1009.9 +34.4
15 24.04 ЮВ 1 7000 м в посл. час дождь {гроза} 8/0
[Cb cap As op Ci fib]
+28.2 +26.1 88 +42 +42 опасность
перегрева
1011.7 1011.3
18 24.04 Ю 1 8000 м {гроза, дождь} 8/4 600 м
[Cu hum As trans Ci fib]
+27.4 +25.3 88 +40 +40 очень
душно
1010.6 1010.2
21 24.04 ЮЗ 1 8000 м 4/3 600 м
[Cu hum Ci fib]
+26.0 +24.5 91 +36 +36 очень
душно
1010.1 1009.7
00 25.04 Ю 1 12 км 3/0
[Ci fib]
+26.8 +24.7 88 +38 +41 очень
душно
1011.9 1011.5 +25.5
03 25.04 СВ 2 12 км 5/0
[Cu med, cong Ac trans Ci fib]
+32.0 +25.5 69 +47 +59 опасность
перегрева
1012.3 1011.9
06 25.04 СВ 6 10 км 10/0
[Cu med, cong As op Cs]
+31.4 +23.9 64 +43 +46 опасность
перегрева
1009.7 1009.3
09 25.04 СВ 3 12 км 5/0 2000 м
[Ac trans Ci fib]
+30.6 +22.9 64 +41 +42 опасность
перегрева
1008.4 1008.0
12 25.04 штиль 0 8000 м ясно +29.7 +25.3 77 +43 +43 опасность
перегрева
1009.9 1009.5 +34.4
15 25.04 ЮВ 1 8000 м ясно +29.1 +25.4 80 +42 +42 опасность
перегрева
1011.4 1011.0
18 25.04 Ю 2 8000 м 5/5 600 м
[Sc Ac trans]
+28.4 +25.5 84 +42 +42 опасность
перегрева
1010.6 1010.3
21 25.04 ЮЗ 1 8000 м {дождь} 5/0 2000 м
[Cu med, cong Ac trans]
+26.4 +23.8 86 +36 +36 очень
душно
1009.7 1009.4
00 26.04 штиль 0 11 км {дождь} 8/5
[Cu hum Ac trans Ci sp]
+27.0 +24.0 84 +37 +39 очень
душно
1011.1 1010.8 +25.7
03 26.04 ЮВ 2 12 км 4/3 600 м
[Cu hum Ci sp]
+31.6 +25.4 70 +46 +57 опасность
перегрева
1011.2 1010.8
06 26.04 СВ 5 11 км 5/0
[Cu med, cong Ci fib]
+34.0 +24.5 58 +47 +55 опасность
перегрева
1008.8 1008.5
09 26.04 В 3 11 км 4/3 600 м
[Cu hum Ci fib]
+32.0 +25.0 67 +46 +47 опасность
перегрева
1007.8 1007.5
12 26.04 СВ 2 9000 м 4/3 600 м
[Cu hum Ci fib]
+29.5 +24.5 75 +42 +42 опасность
перегрева
1010.5 1010.1 +34.4
15 26.04 В 1 9000 м 3/1 600 м
[Cu hum Ci fib]
+28.4 +24.7 80 +40 +40 очень
душно
1011.7 1011.3
18 26.04 ЮЗ 1 9000 м 3/1 600 м
[Cu hum Ci fib]
+27.8 +24.9 84 +40 +40 очень
душно
1010.2 1009.9
21 26.04 штиль 0 9000 м 4/4 600 м
[Cu hum Ci fib]
+26.8 +24.2 86 +37 +37 очень
душно
1009.2 1008.8
00 27.04 штиль 0 9000 м 4/3 600 м
[Cu hum Ci fib]
+26.7 +24.3 87 +37 +40 очень
душно
1010.9 1010.6 +25.9
03 27.04 С 2 11 км 5/0
[Cu med, cong As trans Ci fib]
+32.6 +24.5 62 +45 +57 опасность
перегрева
1011.7 1011.3
06 27.04 СЗ 2 10 км 8/4 600 м
[Cu hum As op Ci fib]
+34.0 +25.0 59 +47 +54 опасность
перегрева
1008.9 1008.5
09 27.04 СВ 2 10 км 5/3 600 м
[Cu hum As trans Ci fib]
+32.0 +24.5 65 +45 +46 опасность
перегрева
1007.8 1007.4
12 27.04 СВ 3 9000 м 4/3 600 м
[Sc diur, vesp Ci fib]
+30.0 +25.2 76 +44 +44 опасность
перегрева
1010.4 1010.0 +34.3
15 27.04 штиль 0 9000 м 4/3 600 м
[Sc diur, vesp Ci fib]
+28.4 +24.1 78 +40 +40 очень
душно
1011.7 1011.3
18 27.04 штиль 0 9000 м 5/0
[As trans Ci fib]
+27.4 +23.5 79 +37 +37 очень
душно
1010.8 1010.5
21 27.04 ЮЗ 1 9000 м 4/0
[As trans Ci fib]
+26.2 +23.0 83 +35 +35 очень
душно
1010.3 1009.9
00 28.04 ЮЗ 1 10 км 4/1 600 м
[Cu hum Ci fib]
+26.6 +24.0 86 +37 +40 очень
душно
1011.7 1011.3 +25.9
03 28.04 В 2 11 км 4/0
[Cu med, cong Ci fib]
+32.0 +24.2 63 +44 +59 опасность
перегрева
1012.0 1011.7
06 28.04 В 3 12 км 5/0
[Cu med, cong Ci fib]
+34.6 +23.5 53 +46 +57 опасность
перегрева
1009.3 1008.9
09 28.04 СВ 3 10 км 8/4 600 м
[Cu hum As op Ci fib]
+30.8 +24.1 68 +43 +43 опасность
перегрева
1008.6 1008.3
12 28.04 СВ 2 10 км 4/3 600 м
[Cu hum Ci fib]
+29.5 +23.8 71 +40 +40 очень
душно
1010.2 1009.9 +35.1
15 28.04 ЮЗ 1 9000 м 8/4 600 м
[Cu hum As trans Ci fib]
+28.4 +24.7 80 +40 +40 очень
душно
1011.7 1011.3
18 28.04 штиль 0 9000 м 8/4 600 м
[Cu hum As trans Ci fib]
+27.2 +24.2 84 +38 +38 очень
душно
1011.0 1010.6
21 28.04 Ю 2 9000 м 8/4 600 м
[Cu hum As trans Ci fib]
+26.5 +23.5 84 +36 +36 очень
душно
1010.7 1010.3
00 29.04 ЮЗ 2 10 км 8/6
[Cu hum Ac trans Ci fib]
+26.8 +24.2 86 +37 +38 очень
душно
1011.4 1011.1 +25.9
03 29.04 СВ 2 11 км 5/3 600 м
[Cu hum Ac trans Ci fib]
+32.2 +24.4 63 +44 +54 опасность
перегрева
1011.8 1011.5

 

Местоположение метеостанции Surabaya Gedangan (Индонезия): широта -7.22 долгота 113.71 высота над уровнем моря 113 м.

В архиве по умолчанию представлена погода в Surabaya Gedangan за последнюю неделю. Архивные данные за месяц целиком и за предыдущие месяцы, начиная с января 2011 года, Вы можете получить, выбрав интересующий диапазон дат из раскрывающегося списка и нажав кнопку "Ввод!".

Внимание! Время в таблицах - всемирное. Для получения местного времени необходимо прибавить поправку, которая в Surabaya Gedangan равна 7 ч.

Смотрите также архив погоды в соседних городах и на ближайших метеорологических станциях:

Погода в Kalianget (Индонезия) (33 км)
Погода в Juanda Int Airport (Индонезия) (106 км)
Погода в Surabaya Perak (Индонезия) (110 км)
Погода в Banyuwangi (Индонезия) (134 км)
Погода в Sangkapura BI (Индонезия) (194 км)
Погода в Denpasar (Индонезия) (233 км)
Погода в Ampenan (Индонезия) (297 км)
Погода в Semarang (Индонезия) (365 км)
Погода в Achmad Yani Int Airport (Индонезия) (369 км)
Погода в Sumbawa Besar (Индонезия) (429 км)

Пояснения к столбцам:

Ветер - указаны скорость ветра в м/с - средняя за 10 мин, порывы в срок и между сроками (в фигурных скобках) и направление, откуда дует ветер: С - северный, СВ - северо-восточный, В - восточный, ЮВ - юго-восточный, Ю - южный, ЮЗ - юго-западный, З - западный, СЗ - северо-западный.
Видимость - горизонтальная дальность видимости в метрах или километрах. При видимости от 1 до 10 км при отсутствии осадков обычно наблюдается дымка, при ухудшении видимости до 1 км и менее - туман. В сухую погоду видимость может ухудшаться дымом, пылью или мглою.
Явления - указаны атмосферные явления, наблюдавшиеся в срок или в последний час перед сроком; фигурными скобками обозначены явления, наблюдавшиеся между сроками (за 1-3 часа до срока); квадратными скобками обозначены град или гололедные отложения с указанием их диаметра в мм.
Облачность - указаны через наклонную черту общая и нижняя облачность в баллах и высота нижней границы облаков в метрах; квадратными скобками обозначены формы облаков: Ci - перистые, Cs - перисто-слоистые, Cc - перисто-кучевые, Ac - высококучевые, As - высокослоистые, Sc - слоисто-кучевые, Ns - слоисто-дождевые, Cu - кучевые, Cb - кучево-дождевые. Подробнее классификацию облаков см. в Атласе облаков (PDF).
T - Температура воздуха - температура, измеренная на высоте 2 м над землей.
Td - Температура точки росы - температура, при понижении до которой содержащийся в воздухе водяной пар достигнет насыщения.
f - Относительная влажность воздуха - влажноcть воздуха, измеренная на высоте 2 м над землей.
Te - Эффективная температура - температура, которую ощущает одетый по сезону человек в тени. Характеристика душности погоды. При расчете учитывается влияние влажности воздуха и скорости ветра на теплоощущения человека.
Tes - Эффективная температура на солнце - температура, которую ощущает человек, с поправкой на солнечный нагрев. Характеристика знойности погоды. Зависит от высоты солнца над горизонтом, облачности и скорости ветра. Ночью, в пасмурную погоду, а также при ветре 12 м/с и более поправка равна нулю.
P - Атмосферное давление - приведенное к уровню моря атмосферное давление.
Po - Атмосферное давление - измеренное на уровне метеостанции атмосферное давление.
Tmin - Минимальная температура - минимум температуры воздуха на высоте 2 м над землей.
Tmax - Максимальная температура - максимум температуры воздуха на высоте 2 м над землей.
R - Количество осадков - Количество выпавших осадков за период времени, мм. При наведении курсора мыши на число - период времени, за который выпало указанное количество осадков.
R24 - Количество осадков - Количество выпавших осадков за 24 часа, мм.
S - Снежный покров - Высота снежного покрова, см. При наведении курсора мыши на число - состояние снежного покрова и степень покрытия местности в баллах.